Temperature
14 14 14 14 14 14 14 14 13 13 12 12 12 12 12 12 12 12 12 12 12 12 12 12 12 12 12 12 12 11 11 11 11 11 11 10 10 10
14 14 14 14 13 13 13 13 13 13 13 12 12 12 12 12 12 12 12 12 12 12 12 12 12 12 12 12 11 11 11 11 11 11 11 10 10 10
14 14 14 13 13 13 13 13 13 13 13 12 12 12 12 12 12 12 12 12 12 12 11 11 11 11 11 11 11 11 11 11 11 11 11 10 10 10
14 13 13 13 13 13 13 13 13 13 13 13 12 12 12 12 12 12 12 11 11 11 11 11 11 11 11 11 11 11 11 10 10 10 10 10 10 10
13 13 13 13 13 13 13 13 13 13 13 13 12 12 12 12 12 11 11 11 11 11 11 11 11 11 11 11 10 10 10 10 10 10 10 10 10 9
13 13 13 13 13 13 13 13 13 13 12 12 12 12 12 11 11 11 11 11 11 11 11 11 10 10 10 10 10 10 10 10 10 10 10 10 9 9
13 13 13 13 13 13 13 13 13 12 12 12 12 12 12 11 11 11 11 11 11 11 11 10 10 10 10 10 10 10 10 10 10 10 9 9 9 9
13 13 13 13 13 13 13 12 12 12 12 12 12 12 12 11 11 11 11 11 10 10 10 10 10 10 10 10 10 10 10 9 9 9 9 9 9 9
13 13 13 12 12 12 12 12 12 12 12 12 12 12 11 11 11 11 11 11 10 10 10 10 10 10 10 10 9 9 9 9 9 9 9 9 9 8
12 12 12 12 12 12 12 12 12 12 12 12 12 11 11 11 11 11 10 10 10 10 10 10 10 10 10 9 9 9 9 9 9 9 8 8 8 8
12 12 12 12 12 12 12 12 12 12 11 11 11 11 11 11 11 10 10 10 10 10 10 9 9 9 9 9 9 9 9 8 8 8 8 8 8 8
12 12 12 12 12 12 12 11 11 11 11 11 11 11 11 10 10 10 10 10 10 9 9 9 9 9 9 9 9 8 8 8 8 8 8 7 7 7
12 11 11 11 11 11 11 11 11 11 11 11 11 11 10 10 10 10 10 10 9 9 9 9 9 9 8 8 8 8 8 8 8 7 7 7 7 7
11 11 11 11 11 11 11 11 11 10 10 10 10 10 10 10 10 9 9 9 9 9 9 9 9 8 8 8 8 8 8 7 7 7 7 7 6 6
11 11 10 10 10 10 10 10 10 10 10 10 10 10 10 9 9 9 9 9 9 9 8 8 8 8 8 8 8 7 7 7 7 7 7 6 6 6
10 10 10 10 10 10 10 10 9 9 9 9 9 9 9 9 9 8 8 8 8 8 8 8 8 7 7 7 7 7 7 7 7 6 6 6 6 5
10 10 9 9 9 9 9 9 9 9 9 9 9 9 8 8 8 8 8 8 8 8 8 8 7 7 7 7 7 7 6 6 6 6 6 6 5 5
9 9 9 9 9 9 9 9 8 8 8 8 8 8 8 8 8 8 8 8 8 8 7 7 7 7 7 6 6 6 6 6 6 5 5 5 5 5
9 9 9 9 9 8 8 8 8 8 8 8 8 7 7 7 7 7 7 7 7 7 7 7 6 6 6 6 6 6 5 5 5 5 5 5 4 4
8 9 8 8 8 8 8 8 8 7 7 7 7 7 7 7 7 7 7 7 7 7 6 6 6 6 6 6 5 5 5 5 5 4 4 4 4 4
8 8 8 8 8 8 7 7 7 7 7 7 7 7 7 6 6 6 6 6 6 6 6 6 6 6 5 5 5 5 5 4 4 4 4 4 4 3
7 7 7 7 7 7 7 7 7 7 7 6 6 6 6 6 6 6 6 6 6 6 6 6 5 5 5 5 4 5 4 4 4 3 3 3 3 3
7 7 7 7 7 7 7 6 6 6 6 6 6 6 6 5 5 5 5 5 5 5 5 5 5 5 4 4 4 4 4 4 4 3 3 3 2 2
Wind_Speed
2 2 2 1 2 2 3 4 4 2 1 2 1 1 2 3 3 4 4 4 3 3 2 2 3 3 3 3 4 4 4 3 3 2 3 3 4 4
2 3 2 1 2 2 3 3 3 4 2 2 2 1 2 3 3 4 3 3 3 3 3 3 3 3 3 3 3 4 4 3 2 3 3 3 3 3
2 3 2 2 2 2 2 2 3 3 3 1 0 0 2 2 2 2 2 2 2 3 3 3 4 3 3 3 3 3 3 3 3 3 3 3 3 3
2 2 2 2 2 2 2 2 2 2 4 2 0 0 1 2 2 1 1 1 2 2 3 3 3 3 3 3 3 3 3 3 3 3 3 3 3 2
2 3 3 3 2 2 2 2 2 2 2 3 1 0 0 1 1 0 0 0 1 1 2 3 3 3 3 3 3 2 2 3 3 3 3 3 3 2
2 2 3 4 4 3 3 3 3 3 3 3 2 1 0 0 1 0 1 1 1 0 1 1 2 3 3 3 3 3 3 3 4 4 4 3 3 3
1 1 2 3 4 4 3 4 4 3 3 3 2 1 1 1 1 1 1 1 1 0 0 0 0 0 1 2 3 4 4 4 4 4 4 4 3 3
2 1 1 1 3 4 4 6 7 6 5 3 2 3 3 3 2 2 2 1 2 1 1 1 1 1 2 3 3 4 4 4 4 4 4 4 4 4
2 2 1 1 2 2 3 4 4 5 7 6 5 5 4 4 4 3 3 3 3 2 2 1 1 2 3 3 4 5 5 5 5 4 4 4 4 4
2 2 2 1 2 3 3 2 2 3 5 5 5 5 4 5 5 4 4 2 1 1 2 1 1 2 2 3 5 5 6 5 5 5 4 4 4 4
2 2 2 2 3 4 4 3 2 2 3 4 5 4 3 3 4 3 2 2 1 2 1 2 1 1 1 2 4 5 6 6 6 5 5 5 4 4
1 1 2 2 3 4 4 5 4 4 2 1 1 1 1 2 3 4 4 3 2 2 2 2 1 1 1 2 2 2 3 4 6 6 6 5 5 3
2 2 2 2 3 4 4 5 6 4 3 2 1 1 0 1 2 3 4 4 4 3 3 3 2 2 2 1 2 2 2 2 3 4 5 6 6 5
4 3 3 3 3 4 3 4 4 4 2 2 1 1 2 2 2 3 4 4 4 4 4 5 3 3 3 2 2 2 1 2 2 2 3 4 4 6
4 5 4 4 3 3 3 3 3 3 3 2 3 3 3 3 2 2 2 2 1 1 3 4 3 3 3 3 2 2 1 2 3 3 3 3 3 3
3 3 3 2 2 2 2 2 2 3 3 3 3 3 1 1 2 2 2 1 1 2 2 3 4 4 3 3 3 3 2 2 2 3 3 3 4 5
3 2 1 1 1 1 1 2 2 2 3 2 2 2 2 2 2 2 2 2 2 2 2 1 1 2 3 3 2 3 3 2 3 2 2 2 4 5
4 2 2 3 4 4 3 3 3 3 4 3 3 3 3 3 3 2 2 3 3 4 3 1 0 1 1 1 3 3 3 3 2 2 2 3 4 5
4 4 4 4 4 4 4 4 4 4 3 3 4 4 4 4 3 3 3 3 4 4 3 2 2 3 3 4 3 3 3 2 2 2 3 3 4 5
4 4 5 5 4 4 4 4 4 3 3 3 3 3 3 3 3 3 4 4 4 3 3 2 4 5 6 4 2 2 5 4 3 3 3 2 3 5
5 5 5 5 4 5 5 4 4 4 3 3 4 4 3 3 4 4 4 5 4 3 4 4 5 5 2 1 1 2 3 5 5 3 3 2 2 2
4 5 5 4 4 4 4 4 4 4 4 4 4 4 4 4 4 5 4 4 4 4 4 3 1 2 2 4 4 4 3 3 4 5 6 5 3 4
4 4 4 4 4 4 4 4 5 5 5 4 4 4 4 4 4 4 4 4 4 4 3 2 1 2 3 4 4 4 4 3 2 2 3 7 8 9
Wind_Direction
157 149 143 147 143 149 146 150 149 158 242 260 257 238 176 169 176 164 164 161 160 158 145 141 139 130 121 107 101 111 115 112 111 129 146 147 142 147
146 133 126 137 127 128 140 137 136 150 181 231 228 229 172 160 170 170 173 171 175 177 171 164 156 148 134 125 116 112 118 118 123 159 174 168 164 152
140 142 152 139 130 136 129 122 127 133 153 248 300 107 128 146 137 155 176 178 187 193 194 185 171 167 160 147 137 126 124 122 121 127 140 139 140 134
153 147 168 160 143 146 140 141 144 147 149 162 324 56 172 175 149 140 163 182 195 205 206 197 189 180 174 166 155 152 149 145 140 134 135 141 138 140
160 162 176 157 164 161 159 159 151 141 139 151 176 172 119 128 96 17 49 60 219 220 208 216 206 195 186 180 174 180 178 162 153 149 147 150 155 159
165 167 169 167 178 175 168 166 151 135 132 141 155 168 165 165 113 120 336 315 273 302 155 187 193 195 197 196 191 193 194 186 176 169 168 171 172 173
175 199 185 171 171 175 169 169 156 145 143 150 166 158 196 155 192 195 205 288 306 275 104 316 125 163 230 228 217 215 210 202 192 187 185 184 185 190
187 229 229 193 191 177 169 164 164 165 170 167 185 198 223 215 201 188 176 135 289 274 152 257 170 223 244 224 219 214 210 202 195 196 194 194 198 202
193 205 223 219 194 194 183 175 179 180 176 175 185 209 212 207 185 186 194 190 223 232 148 253 241 235 247 235 229 221 212 204 198 197 198 198 204 204
203 197 200 246 205 182 171 171 199 213 202 188 194 210 212 202 188 187 188 182 265 302 154 208 253 250 261 245 243 222 211 207 205 202 202 202 202 200
222 210 195 209 208 173 160 174 203 251 225 193 193 194 193 190 169 138 139 138 230 263 198 179 229 256 282 270 258 235 219 216 215 212 210 209 206 201
252 247 220 206 195 172 172 180 198 228 210 163 153 203 183 180 173 171 176 173 185 236 227 177 202 163 282 290 282 250 228 228 222 217 217 216 209 190
221 248 252 207 190 188 184 192 206 196 177 164 163 172 165 184 194 191 185 180 186 220 207 169 179 177 197 259 306 281 234 238 227 226 225 226 218 197
215 225 231 211 205 200 197 199 183 159 150 152 168 212 227 231 226 210 208 204 205 209 190 169 176 184 180 202 254 276 260 246 223 229 244 241 240 231
217 218 214 205 201 205 206 190 169 163 167 178 208 228 230 227 210 195 216 203 221 248 193 188 180 181 180 199 216 228 250 262 224 218 233 237 238 234
215 208 196 190 194 200 208 208 192 184 186 204 216 227 217 205 209 199 202 202 208 298 278 219 197 180 194 210 204 223 215 223 226 217 222 242 251 239
175 137 127 172 209 222 226 230 217 199 204 213 210 213 215 217 227 203 181 175 192 232 264 299 243 199 200 189 209 229 226 236 229 211 207 243 251 247
153 170 201 214 219 221 222 226 223 219 219 213 213 213 217 220 229 220 193 196 215 228 228 224 148 44 8 306 225 222 230 235 233 208 195 223 257 256
170 197 208 215 222 223 223 221 227 231 220 212 219 224 223 219 216 223 222 222 233 236 229 201 179 177 215 259 281 218 211 228 218 222 221 219 241 252
206 210 216 219 220 221 222 224 229 228 218 220 223 227 223 216 215 219 221 225 231 231 229 212 201 204 214 229 239 257 230 216 214 229 239 240 258 277
219 223 224 223 223 222 222 222 220 221 218 215 220 223 223 218 223 224 223 228 222 222 230 237 235 224 199 140 232 271 268 244 230 221 217 226 266 285
220 225 229 227 224 222 222 219 218 222 222 220 224 225 222 220 225 225 222 222 224 228 238 244 217 166 176 210 238 252 269 293 282 266 239 223 205 225
230 228 229 229 226 221 217 217 217 223 223 220 221 224 221 224 225 223 221 220 221 230 238 235 207 198 214 220 235 249 257 265 275 287 279 273 262 264
Height
1535 1535 1535 1535 1536 1536 1536 1536 1536 1536 1537 1538 1538 1538 1538 1538 1537 1537 1537 1536 1536 1535 1535 1534 1534 1534 1534 1534 1533 1533 1534 1534 1534 1534 1535 1535 1534 1535
1534 1534 1534 1534 1534 1535 1535 1535 1535 1536 1536 1536 1537 1537 1537 1537 1537 1536 1536 1536 1535 1535 1534 1534 1533 1533 1533 1533 1533 1533 1533 1533 1533 1533 1533 1534 1534 1534
1532 1533 1533 1533 1534 1534 1534 1534 1535 1535 1535 1535 1536 1536 1536 1536 1536 1536 1535 1535 1534 1534 1533 1533 1532 1532 1532 1532 1532 1532 1532 1532 1532 1532 1532 1532 1532 1532
1531 1531 1531 1532 1532 1533 1533 1533 1533 1534 1534 1534 1534 1535 1535 1535 1535 1535 1534 1534 1533 1533 1533 1532 1532 1532 1532 1531 1531 1531 1531 1531 1531 1531 1531 1531 1531 1531
1529 1530 1530 1530 1531 1531 1532 1532 1532 1533 1533 1533 1533 1534 1534 1534 1534 1533 1533 1533 1532 1532 1532 1531 1531 1531 1531 1531 1531 1531 1530 1530 1530 1530 1530 1530 1530 1530
1528 1528 1528 1528 1529 1529 1530 1530 1531 1531 1531 1532 1532 1532 1532 1532 1532 1532 1531 1531 1531 1531 1530 1530 1530 1530 1530 1530 1530 1530 1529 1529 1529 1529 1529 1528 1529 1529
1526 1526 1527 1527 1527 1528 1528 1528 1529 1529 1529 1530 1530 1530 1530 1530 1530 1530 1530 1530 1529 1529 1529 1529 1529 1528 1528 1528 1528 1528 1528 1528 1528 1527 1527 1527 1527 1527
1524 1524 1525 1525 1526 1526 1526 1526 1527 1527 1527 1527 1528 1528 1528 1528 1529 1528 1528 1528 1527 1528 1527 1527 1527 1527 1527 1527 1527 1527 1526 1526 1526 1526 1526 1525 1525 1525
1522 1522 1523 1523 1523 1524 1524 1524 1524 1525 1525 1525 1525 1526 1526 1526 1526 1526 1526 1526 1526 1526 1526 1525 1525 1525 1525 1525 1525 1525 1524 1524 1524 1524 1524 1523 1523 1523
1519 1520 1520 1520 1521 1521 1521 1521 1522 1522 1522 1523 1523 1523 1524 1524 1524 1524 1524 1524 1524 1524 1524 1523 1523 1523 1523 1522 1522 1522 1522 1522 1521 1521 1521 1521 1521 1520
1517 1517 1517 1517 1518 1518 1519 1519 1519 1519 1520 1520 1521 1521 1521 1521 1521 1521 1521 1521 1520 1521 1521 1521 1520 1520 1520 1519 1519 1519 1519 1519 1518 1518 1518 1518 1518 1517
1513 1514 1514 1514 1515 1515 1515 1515 1516 1516 1517 1517 1518 1518 1518 1518 1518 1518 1518 1518 1518 1518 1518 1518 1517 1517 1516 1516 1516 1516 1516 1515 1515 1515 1515 1514 1514 1514
1510 1510 1510 1511 1511 1512 1512 1512 1512 1513 1513 1514 1514 1514 1514 1515 1515 1515 1515 1515 1515 1514 1515 1514 1514 1514 1514 1513 1513 1512 1512 1512 1511 1511 1511 1510 1510 1510
1506 1506 1507 1507 1508 1508 1508 1509 1509 1509 1510 1510 1510 1510 1510 1511 1511 1511 1511 1511 1511 1511 1511 1511 1511 1510 1510 1509 1509 1509 1509 1508 1508 1507 1507 1507 1506 1506
1502 1503 1503 1503 1504 1504 1505 1505 1505 1505 1505 1505 1505 1506 1507 1507 1507 1508 1508 1508 1508 1507 1507 1507 1507 1507 1506 1506 1505 1505 1504 1504 1504 1503 1503 1503 1502 1502
1498 1498 1499 1499 1500 1500 1500 1501 1501 1501 1501 1501 1501 1502 1502 1503 1503 1503 1503 1503 1503 1503 1503 1503 1503 1503 1502 1502 1501 1501 1500 1500 1499 1499 1499 1498 1498 1497
1493 1494 1494 1495 1495 1496 1496 1496 1496 1497 1497 1497 1497 1498 1498 1498 1499 1499 1499 1499 1499 1499 1499 1499 1499 1499 1498 1498 1497 1496 1496 1495 1495 1495 1494 1494 1494 1493
1489 1489 1489 1490 1491 1491 1491 1491 1492 1492 1492 1493 1493 1493 1493 1494 1494 1494 1494 1494 1494 1494 1495 1495 1495 1494 1494 1493 1494 1492 1492 1491 1491 1491 1490 1489 1489 1489
1484 1484 1485 1485 1486 1487 1487 1487 1487 1488 1488 1488 1489 1489 1489 1489 1489 1490 1490 1490 1490 1490 1490 1490 1490 1490 1489 1488 1488 1489 1488 1487 1487 1486 1486 1485 1484 1484
1479 1479 1480 1481 1481 1482 1482 1482 1483 1483 1483 1484 1484 1484 1484 1484 1485 1485 1485 1485 1485 1485 1485 1485 1485 1485 1484 1484 1484 1484 1484 1483 1482 1482 1481 1480 1480 1479
1473 1474 1475 1476 1477 1477 1478 1478 1478 1478 1478 1479 1479 1479 1479 1479 1479 1479 1480 1480 1480 1480 1480 1480 1480 1481 1480 1480 1480 1479 1479 1479 1478 1478 1477 1476 1474 1473
1468 1469 1470 1471 1471 1472 1472 1473 1473 1473 1473 1474 1474 1474 1474 1474 1474 1474 1474 1474 1474 1475 1475 1475 1476 1475 1475 1475 1474 1474 1474 1474 1474 1473 1472 1472 1470 1468
1462 1463 1464 1465 1466 1467 1467 1467 1467 1467 1468 1468 1468 1469 1469 1469 1469 1469 1469 1469 1469 1469 1470 1470 1470 1470 1470 1470 1469 1469 1469 1469 1468 1468 1467 1467 1466 1465